Location: Poprad
(49.0500°N, 20.3000°E)
Time: 18:26:42
(UTC+02:00)

RS-44 - Pass Details

Date: 28 April 2024
Orbit: 1174 x 1511 km, 82.5° (Epoch: 20 May)

Event Time Altitude Azimuth Distance (km) Brightness Sun altitude
Rises 20:48:12 0° 213° (SSW) 4,601 ? -9.0°
Reaches altitude 10° 20:51:21 10° 220° (SW) 3,596 ? -9.4°
Maximum altitude 20:59:28 43° 290° (WNW) 1,884 ? -10.5°
Drops below altitude 10° 21:07:09 10° 1° (N) 3,393 ? -11.5°
Sets 21:10:03 0° 8° (N) 4,321 ? -11.9°
